University of Illinois Willard Airport Champaign,Urbana US
ICAO: KCMI
IATA: CMI
Category: Medium
Scheduled Services: Yes

Elevation: 755 ft
TransAlt. 18000 ft.

Airport Communications:
CHAMPAIGN APP/DEP:121.35
ATIS:124.85
CLNC DEL:128.75
CTAF:120.4
GND:121.8
ST LOUIS RDO:110
CHAMPAIGN TWR:118.25
UNICOM:122.95

KCMI Zoom In..

If you have problems with the map follow the link
https://www.worldairports.se/pages/airport.php?
ICAO=KCMI

Runways:

(A) RW 04 length 6501 ft width 150 ft
---- / hdg 41

(B) RW 14L length 8102 ft width 150 ft
---- / hdg 136

(C) RW 14R length 3817 ft width 75 ft
---- / hdg 136

(D) RW 18 length 5302 ft width 150 ft
---- / hdg 179

(E) RW 22 length 6501 ft width 150 ft
---- / hdg 221

(F) RW 32L length 3817 ft width 75 ft
---- / hdg 316

(G) RW 32R length 8102 ft width 150 ft
ILS 109.10 / hdg 316

(H) RW 36 length 5302 ft width 150 ft
---- / hdg 359

Location; KCMI
Day. 10 / Time. 01.53 Zulu
* Altimeter: 29.79
* Temperature: -01° c. -30.2°f.
* Wind from: 280° Speed 22 kn with Gusts up to 30 kn.
Dewpoint: -02° c.
Visibility: 10 Statute Miles.
Clouds: Overcast 1200 ft.

KCMI 100153Z 28022G30KT 10SM OVC012 M01/M02 A2979 RMK AO2 PK WND 29033/0122 SLP094 T10111022


Wind From 280°
Speed 22 kn.

 
 
jpsmedia worldairports.se 2019   terms of use